Temperature
11 10 9 10 10 11 12 12 11 12 11 11 10 11 11 12 12 12 12 12 12 11 11 10 10 10 10 10 10 9 9 10 9 9 9 9 9 9 9 9 10 10 9 9
10 9 10 11 11 11 11 10 11 11 11 11 10 10 11 12 12 12 12 12 11 11 10 10 9 9 9 9 9 9 9 9 9 9 9 9 9 9 9 9 9 9 9 9
10 9 10 10 10 10 10 10 10 10 10 10 10 10 11 12 12 12 12 11 11 10 10 9 9 9 8 8 9 8 8 8 8 8 8 8 8 8 8 8 8 9 8 8
9 10 10 9 9 9 9 9 10 9 8 8 10 8 11 11 11 11 11 11 11 10 10 9 8 8 8 8 8 8 8 8 8 8 8 8 7 7 8 7 8 8 8 8
8 9 8 8 9 9 9 9 9 9 8 7 9 8 9 11 11 11 11 11 10 10 9 9 8 7 7 7 7 7 7 8 7 7 7 7 7 7 7 7 7 7 7 7
8 8 8 8 9 9 8 8 8 8 7 7 8 8 9 10 11 11 10 11 10 9 9 8 8 7 7 7 7 7 7 7 7 7 7 7 6 6 6 6 6 7 7 7
8 8 8 8 8 8 8 7 7 7 7 7 9 9 9 10 11 10 10 10 9 8 8 7 7 7 6 6 6 6 6 6 6 6 6 6 6 6 6 6 6 6 6 6
7 7 7 7 8 7 7 7 7 7 7 8 8 8 9 10 10 10 10 9 8 8 7 7 6 6 6 6 6 6 6 6 6 6 6 5 5 5 5 5 5 5 5 5
7 7 7 7 8 7 7 7 8 7 6 6 8 9 9 9 9 9 9 8 8 7 7 6 6 5 5 5 5 5 5 5 5 5 5 5 5 5 4 5 5 5 5 5
7 6 7 7 7 7 7 7 6 6 6 7 9 9 8 8 8 8 8 8 7 7 6 6 5 5 5 5 5 5 4 4 4 4 4 4 4 4 4 4 4 4 4 4
6 5 6 6 5 6 6 6 6 6 6 6 7 8 9 8 8 7 7 7 7 7 6 5 5 4 4 4 4 4 4 4 3 3 3 3 3 3 3 3 3 3 3 3
6 5 5 6 6 6 6 6 6 5 5 6 6 7 8 7 7 7 7 7 7 6 5 5 4 4 4 3 3 3 3 3 3 3 3 3 3 3 2 3 3 3 3 3
5 4 4 5 4 4 4 5 5 5 5 5 5 7 7 7 7 7 7 6 6 5 5 4 4 3 3 3 3 3 3 2 2 2 2 2 2 2 2 2 2 2 2 2
4 3 3 5 5 4 4 4 4 4 3 4 5 6 7 7 6 6 6 6 5 5 4 4 3 3 3 2 2 2 2 2 2 2 1 1 1 1 1 1 1 1 1 1
3 2 2 3 4 4 4 4 4 3 4 4 5 6 6 6 5 5 5 5 4 4 4 3 3 2 2 2 2 2 2 1 1 1 1 1 1 1 0 0 1 1 1 1
2 2 2 2 4 4 3 4 4 4 4 4 4 4 6 6 6 5 5 4 4 3 3 3 2 2 2 1 1 1 1 1 1 0 0 0 0 0 0 0 0 0 0 0
1 1 2 2 3 3 3 3 4 4 4 4 4 4 5 4 4 4 4 4 3 3 3 2 2 1 1 1 1 1 1 0 0 -0 -0 -0 -0 -0 -0 -0 -0 -0 -0 -0
0 1 1 1 2 2 5 5 4 4 4 4 4 4 4 3 4 4 4 3 3 2 2 2 1 1 1 1 1 0 -0 -0 -0 -0 -1 -0 -1 -1 -1 -1 -1 -1 -1 -1
1 1 1 1 1 3 4 4 3 3 3 3 3 3 3 3 3 3 3 2 2 2 1 1 1 1 0 0 0 -0 -0 -1 -1 -1 -1 -1 -1 -1 -1 -1 -1 -1 -1 -1
-0 -0 0 1 1 2 4 3 3 3 2 2 2 2 2 2 1 1 2 1 1 1 0 0 0 0 -0 -0 -0 -1 -1 -1 -1 -1 -1 -1 -2 -2 -2 -2 -1 -2 -1 -1
-1 -1 -1 0 1 2 2 2 2 2 2 2 2 2 1 0 0 1 1 1 0 0 -0 -0 -0 -0 -0 -1 -1 -1 -1 -1 -2 -2 -2 -2 -2 -2 -2 -2 -2 -2 -2 -2
-1 -1 -1 -0 0 1 1 0 1 1 1 1 1 1 1 0 0 0 -0 -0 -0 -0 -1 -1 -1 -1 -1 -1 -1 -2 -1 -2 -2 -2 -2 -2 -2 -2 -2 -2 -2 -2 -2 -2
0 0 0 0 1 1 1 1 1 1 1 1 0 0 0 -0 -1 -1 -1 -1 -1 -1 -1 -1 -1 -1 -2 -2 -2 -2 -2 -2 -2 -2 -2 -2 -3 -3 -3 -3 -3 -3 -3 -3
-0 0 0 -0 0 1 1 1 1 1 0 0 -0 -0 -1 -1 -1 -1 -1 -1 -1 -2 -2 -2 -2 -2 -2 -2 -2 -2 -2 -2 -2 -3 -3 -3 -3 -3 -3 -3 -3 -4 -4 -4
0 -1 -1 -1 -0 0 1 1 1 0 0 -0 -0 -1 -1 -1 -2 -2 -2 -2 -2 -2 -2 -2 -2 -3 -3 -3 -3 -3 -3 -3 -3 -3 -3 -3 -3 -4 -4 -4 -4 -4 -4 -4
-0 -1 -1 -0 -0 -0 0 1 0 -0 -1 -1 -1 -1 -2 -2 -2 -2 -2 -2 -2 -2 -2 -3 -3 -3 -3 -3 -3 -3 -3 -3 -3 -4 -4 -4 -4 -4 -4 -4 -4 -4 -4 -4
Wind_Speed
4 2 3 3 5 5 5 5 6 4 0 3 7 10 9 7 7 7 6 4 3 3 3 2 2 2 2 2 2 2 1 1 1 1 0 0 1 1 1 1 2 2 2 2
3 4 4 4 4 5 5 6 6 3 1 3 7 11 10 7 7 6 5 4 4 3 2 2 2 2 2 2 2 1 1 0 0 0 1 1 1 1 1 1 2 2 2 3
4 1 2 3 2 3 4 4 5 4 4 5 6 8 8 5 5 5 4 4 3 4 3 2 2 2 2 2 1 0 0 0 0 0 0 0 1 1 1 1 1 2 3 2
2 2 2 3 3 3 4 2 4 4 3 3 2 5 5 5 6 7 6 4 4 3 3 2 2 2 2 2 1 1 1 0 0 0 0 1 1 2 2 2 2 2 3 2
2 1 2 3 3 3 1 2 3 5 5 5 5 5 7 4 5 5 5 5 4 3 3 3 3 3 3 3 2 1 1 1 1 1 1 1 1 2 2 2 2 2 2 2
3 1 2 2 2 2 1 2 3 3 2 5 6 6 5 3 3 4 5 5 5 5 4 4 4 4 3 3 2 2 1 1 1 1 1 1 2 2 3 2 2 3 2 2
4 4 3 2 2 3 2 1 1 1 3 5 3 4 6 2 3 4 5 6 6 5 3 3 3 3 2 2 2 2 2 2 2 1 1 2 3 3 3 3 3 3 3 3
3 4 6 3 3 2 4 3 2 3 3 3 2 6 4 3 5 6 6 5 4 4 3 3 2 2 1 2 2 2 2 2 3 2 2 2 3 2 2 3 3 3 3 3
2 2 3 3 1 2 3 4 1 1 3 4 5 4 2 4 4 4 4 4 4 3 3 2 2 2 2 2 2 2 2 2 2 2 3 3 2 2 2 3 3 3 3 3
2 2 2 3 2 3 3 1 1 2 3 5 5 5 4 5 5 4 4 3 3 3 2 2 1 2 2 2 2 2 1 2 2 2 2 4 3 3 2 3 3 3 4 4
1 1 2 3 6 6 4 4 3 3 3 3 4 3 0 5 5 4 3 2 3 2 2 1 1 1 2 2 2 2 2 2 2 2 2 3 4 3 3 3 3 4 4 4
1 1 3 4 2 0 3 4 5 4 5 4 4 5 1 4 4 3 2 2 2 2 1 2 1 1 1 2 2 2 2 2 2 2 3 3 3 3 4 4 4 4 4 4
1 2 1 1 1 2 4 5 5 3 2 4 5 6 0 2 2 1 1 1 1 1 1 1 1 0 1 2 2 2 2 2 2 2 2 3 3 4 4 5 4 4 5 5
1 2 5 6 2 2 5 6 7 6 6 7 9 9 6 3 1 1 1 1 1 1 1 1 0 1 1 1 2 2 2 2 2 2 2 3 4 4 4 5 5 5 5 5
1 3 4 7 8 6 8 9 10 12 11 9 9 10 9 5 3 3 2 2 2 2 1 1 1 1 2 2 2 2 3 3 3 3 3 3 4 4 4 5 5 5 5 6
1 2 2 5 7 6 9 11 11 12 11 13 13 14 9 5 3 3 3 3 3 2 1 1 1 2 2 2 3 3 3 3 3 3 3 4 4 4 4 5 5 5 5 5
3 2 2 4 3 5 8 9 11 8 8 8 12 10 4 4 4 3 3 3 3 1 1 1 1 2 2 2 3 3 3 3 3 3 4 4 4 5 5 6 5 5 5 6
4 3 2 2 2 7 6 0 4 7 8 8 7 5 4 4 4 3 2 1 1 1 1 1 1 2 2 2 3 3 3 3 3 3 4 4 4 5 6 6 6 5 5 5
4 4 3 2 4 8 4 2 1 4 6 5 6 6 4 4 3 2 2 1 0 1 0 0 1 1 2 3 3 3 3 3 3 4 4 5 5 6 6 6 6 6 6 6
2 3 3 3 4 6 3 1 2 1 4 2 1 2 3 2 3 3 2 3 1 1 1 0 0 1 2 3 2 3 3 4 4 4 4 5 5 6 6 6 6 5 5 6
4 4 7 7 6 7 2 1 2 2 4 2 2 2 2 2 3 3 3 2 2 2 1 1 1 1 2 2 2 2 3 4 5 4 5 5 5 5 5 5 5 5 6 6
7 6 7 5 6 7 2 3 3 4 1 2 3 3 3 3 3 3 3 2 2 2 2 1 1 2 2 2 2 3 4 4 4 4 4 5 5 5 5 4 5 5 5 5
7 7 5 7 7 2 3 3 2 1 2 3 3 4 3 3 3 3 3 2 2 2 2 2 1 2 3 2 2 3 4 4 5 5 5 5 5 5 4 4 5 4 4 4
4 3 3 4 6 4 4 3 2 2 3 3 2 2 2 3 3 3 3 3 2 2 2 2 2 2 3 3 3 3 4 4 4 5 5 4 4 4 4 4 3 4 4 4
4 4 4 6 6 4 4 3 3 3 3 3 2 2 2 2 3 3 3 3 2 2 2 2 2 3 4 4 4 4 3 3 4 5 4 4 4 4 4 4 4 4 4 5
4 5 5 6 4 3 3 2 2 3 3 3 2 3 2 2 3 3 3 3 2 2 2 2 3 3 4 4 4 4 3 3 3 4 4 4 4 4 3 4 5 6 6 8
Wind_Direction
195 208 217 225 240 275 300 293 282 283 197 253 257 267 264 243 228 235 233 216 204 203 185 173 139 127 129 119 111 109 91 89 106 120 194 206 249 288 295 295 311 301 285 274
192 227 244 257 255 268 279 285 286 300 30 278 275 273 262 237 225 228 224 210 207 203 185 167 138 121 112 117 112 120 94 67 89 181 223 219 237 266 254 290 304 295 290 286
207 210 235 245 255 258 262 264 281 298 309 261 273 282 243 218 215 218 216 202 201 195 182 163 145 120 100 97 101 127 115 291 338 278 11 29 341 321 319 304 292 311 313 303
221 231 247 241 237 244 250 279 297 302 304 282 245 288 261 210 208 208 202 198 196 174 151 135 112 91 73 68 64 45 54 356 358 201 202 215 244 259 263 250 259 282 290 291
208 207 230 237 242 248 268 332 285 270 261 283 246 248 273 203 206 196 176 173 167 143 130 117 108 98 72 60 67 45 20 348 329 285 240 248 270 266 271 264 262 273 278 284
225 234 250 247 260 247 240 299 261 257 247 262 226 217 269 213 192 162 153 148 136 116 106 99 96 92 80 64 61 50 20 342 319 295 272 259 266 276 280 277 270 271 269 275
209 197 189 214 216 200 211 139 48 280 238 245 197 218 249 186 124 124 130 122 111 105 101 92 88 84 75 59 53 49 27 354 333 305 276 268 264 263 260 266 264 271 273 280
216 216 183 192 196 194 219 208 181 225 252 271 231 233 243 133 103 98 101 109 118 121 114 105 90 80 70 50 46 47 26 358 354 350 318 288 274 265 265 271 273 270 266 268
237 225 148 177 226 236 208 220 254 284 295 282 244 230 208 130 130 133 130 138 147 137 122 107 75 56 52 40 40 35 14 342 340 339 335 310 300 295 292 291 286 280 281 279
326 265 193 156 193 249 260 243 162 191 233 262 259 236 216 170 175 162 155 155 141 124 115 110 86 57 40 29 28 21 357 327 327 338 333 326 318 310 305 301 298 297 290 285
290 224 196 186 201 200 192 202 200 218 241 237 275 268 62 159 164 162 167 161 143 131 132 114 83 57 30 21 10 352 343 339 338 338 329 323 323 327 322 309 304 304 299 292
202 235 236 214 163 243 227 221 192 196 232 224 256 271 54 118 143 150 161 149 139 144 143 121 93 57 26 358 342 334 335 335 330 333 327 320 321 322 319 312 309 308 304 302
156 176 243 244 209 214 235 232 223 219 245 233 233 256 222 112 132 121 143 138 115 129 140 119 103 62 353 328 323 323 328 328 335 334 322 321 322 319 315 312 312 310 305 302
141 208 216 227 246 208 229 227 216 210 222 239 236 253 271 281 293 285 235 230 228 189 184 168 214 272 313 319 327 329 333 340 339 332 319 316 315 314 312 311 309 307 305 304
160 233 249 269 277 272 257 241 222 222 226 234 252 260 269 276 261 251 238 237 250 236 224 246 293 315 324 330 332 331 331 332 328 325 320 315 314 314 314 311 309 307 306 304
185 243 280 275 263 263 265 252 237 235 237 245 261 269 272 281 290 279 251 247 248 236 228 277 308 319 317 317 318 326 322 322 326 323 318 316 315 314 311 309 308 307 306 303
187 192 235 268 293 307 268 237 222 224 225 222 242 254 290 302 297 281 266 246 239 247 275 285 306 318 321 316 314 311 310 324 325 317 312 312 314 314 313 311 308 303 301 299
177 185 220 275 317 248 244 227 196 225 245 237 250 278 289 282 289 298 299 244 266 253 276 289 318 325 318 321 324 319 318 321 316 309 309 314 315 311 310 308 304 302 301 297
198 191 216 228 255 270 260 236 196 223 268 248 248 270 291 317 313 297 345 1 308 232 230 249 294 322 320 318 321 322 322 314 306 305 309 314 313 308 305 304 302 304 303 300
202 195 209 220 237 249 252 88 30 68 279 301 254 272 301 339 290 276 329 350 346 25 47 64 27 359 328 314 316 314 308 308 302 301 303 307 304 299 300 299 301 303 301 295
176 198 214 227 242 262 268 142 111 188 258 346 1 317 302 261 250 296 338 356 15 5 3 18 356 322 299 307 320 313 311 307 305 306 305 303 301 299 297 298 301 304 303 302
182 186 200 203 227 249 165 133 183 230 306 348 339 322 305 288 307 325 333 337 350 334 344 354 326 314 316 324 322 309 305 306 312 310 304 302 303 303 306 301 301 302 301 301
202 199 196 202 221 235 166 192 219 303 315 320 321 316 307 297 304 320 333 331 321 320 330 333 312 313 318 318 308 297 302 313 316 314 306 304 307 308 304 299 300 303 304 302
216 200 223 251 254 246 233 240 257 273 280 298 300 300 300 284 290 307 318 317 320 326 323 326 325 316 315 319 316 297 307 313 313 309 307 308 312 313 312 307 305 305 304 303
213 188 223 249 261 274 255 248 264 278 283 292 294 287 280 282 288 290 298 299 305 312 316 319 307 296 300 311 311 311 316 320 314 310 308 310 311 309 314 313 307 303 296 295
205 198 208 240 234 234 262 245 252 261 264 260 273 292 295 274 276 280 285 287 291 297 305 304 300 300 305 312 313 316 318 316 311 312 313 314 314 312 310 314 323 325 314 317
Height
1487 1490 1491 1490 1489 1487 1486 1486 1487 1484 1485 1486 1486 1483 1478 1477 1478 1478 1479 1479 1480 1482 1483 1484 1485 1485 1486 1486 1486 1486 1487 1486 1486 1487 1487 1487 1487 1488 1488 1489 1489 1490 1491 1491
1488 1491 1489 1487 1487 1486 1487 1488 1487 1485 1484 1485 1484 1481 1475 1473 1474 1475 1476 1477 1478 1479 1481 1482 1483 1483 1483 1483 1484 1484 1484 1484 1484 1484 1484 1484 1484 1484 1485 1486 1486 1487 1487 1487
1487 1489 1486 1487 1487 1488 1488 1489 1488 1488 1486 1484 1485 1480 1471 1469 1471 1472 1473 1474 1476 1477 1478 1480 1481 1481 1481 1481 1481 1481 1481 1481 1482 1482 1482 1481 1481 1481 1482 1482 1483 1483 1483 1483
1486 1487 1487 1487 1487 1488 1489 1488 1488 1489 1492 1491 1486 1490 1471 1467 1468 1468 1470 1472 1473 1475 1477 1478 1478 1479 1479 1479 1479 1479 1479 1479 1479 1480 1479 1479 1478 1478 1478 1479 1479 1479 1480 1479
1487 1486 1487 1488 1488 1488 1489 1488 1489 1489 1491 1494 1486 1491 1476 1465 1466 1466 1468 1470 1472 1474 1475 1476 1477 1477 1477 1477 1477 1477 1477 1477 1477 1477 1476 1476 1475 1475 1476 1476 1475 1475 1475 1475
1487 1487 1488 1488 1488 1488 1489 1490 1490 1490 1493 1498 1484 1486 1476 1466 1462 1464 1465 1468 1470 1472 1474 1475 1475 1476 1476 1476 1476 1475 1475 1475 1474 1474 1474 1473 1473 1472 1472 1472 1471 1471 1471 1471
1486 1486 1487 1488 1488 1489 1490 1494 1498 1498 1497 1490 1476 1479 1472 1461 1459 1461 1464 1467 1469 1471 1473 1474 1474 1474 1474 1474 1474 1473 1473 1472 1472 1471 1471 1470 1470 1469 1469 1468 1468 1467 1467 1466
1486 1487 1486 1486 1487 1489 1489 1490 1497 1499 1492 1483 1479 1478 1466 1459 1459 1461 1464 1466 1469 1471 1472 1473 1473 1473 1473 1473 1472 1472 1471 1470 1469 1468 1468 1467 1467 1466 1466 1465 1465 1464 1463 1463
1484 1485 1483 1485 1486 1487 1488 1489 1487 1493 1492 1492 1478 1466 1462 1460 1461 1462 1465 1466 1468 1470 1471 1472 1472 1472 1472 1471 1471 1470 1469 1468 1467 1466 1465 1464 1464 1463 1462 1462 1461 1461 1460 1459
1485 1488 1484 1485 1487 1487 1487 1487 1492 1495 1496 1489 1471 1465 1465 1463 1461 1462 1464 1465 1467 1468 1470 1470 1471 1471 1470 1470 1469 1468 1467 1466 1464 1463 1462 1461 1461 1460 1459 1458 1457 1456 1456 1455
1485 1489 1488 1487 1488 1486 1488 1489 1489 1491 1490 1490 1482 1470 1456 1457 1459 1461 1463 1464 1465 1467 1468 1469 1469 1469 1468 1467 1466 1465 1464 1463 1462 1461 1459 1458 1457 1456 1456 1455 1454 1453 1452 1451
1485 1488 1488 1484 1483 1483 1484 1483 1486 1492 1490 1486 1486 1475 1457 1457 1458 1460 1462 1463 1464 1466 1466 1467 1467 1466 1466 1465 1464 1463 1462 1460 1459 1458 1456 1455 1454 1453 1452 1451 1450 1449 1448 1447
1485 1489 1490 1485 1488 1487 1486 1483 1483 1486 1488 1487 1485 1473 1458 1457 1458 1460 1461 1462 1463 1464 1464 1464 1464 1464 1463 1462 1461 1460 1459 1458 1456 1455 1453 1452 1451 1450 1448 1447 1446 1445 1444 1443
1485 1489 1489 1484 1479 1482 1484 1483 1483 1485 1488 1483 1474 1466 1460 1459 1459 1459 1460 1461 1461 1462 1462 1462 1462 1461 1461 1460 1459 1457 1456 1455 1453 1452 1450 1449 1448 1446 1445 1444 1442 1441 1440 1439
1486 1488 1486 1482 1478 1477 1477 1477 1479 1481 1477 1477 1466 1463 1458 1457 1458 1457 1458 1458 1459 1459 1460 1459 1459 1459 1458 1457 1455 1454 1453 1452 1450 1449 1447 1446 1445 1443 1442 1440 1439 1438 1436 1435
1486 1488 1486 1483 1476 1475 1475 1471 1472 1472 1471 1468 1465 1461 1455 1455 1455 1455 1455 1456 1456 1456 1457 1457 1456 1456 1455 1454 1452 1451 1450 1449 1447 1445 1444 1443 1442 1440 1439 1437 1435 1434 1433 1432
1486 1488 1487 1482 1477 1476 1474 1463 1463 1463 1461 1461 1462 1456 1453 1454 1453 1453 1452 1453 1453 1453 1453 1453 1453 1452 1452 1451 1449 1448 1447 1445 1444 1442 1441 1440 1438 1437 1435 1434 1432 1430 1429 1428
1485 1487 1487 1484 1482 1481 1459 1454 1454 1456 1455 1455 1453 1452 1452 1452 1452 1452 1451 1451 1450 1450 1450 1450 1450 1449 1449 1448 1447 1445 1444 1442 1441 1439 1438 1437 1435 1434 1432 1430 1429 1427 1425 1424
1482 1485 1485 1484 1480 1468 1456 1454 1454 1456 1455 1451 1451 1450 1450 1450 1450 1449 1450 1449 1449 1448 1448 1448 1447 1447 1446 1445 1444 1442 1441 1439 1438 1436 1435 1433 1432 1430 1429 1427 1425 1424 1422 1420
1481 1483 1485 1482 1480 1472 1456 1454 1453 1455 1456 1450 1449 1449 1449 1449 1452 1449 1448 1447 1446 1446 1445 1445 1444 1444 1443 1442 1440 1439 1437 1436 1434 1433 1431 1430 1429 1427 1426 1424 1422 1420 1418 1417
1483 1483 1483 1480 1476 1463 1456 1454 1454 1460 1456 1451 1449 1449 1449 1449 1449 1448 1446 1445 1444 1444 1443 1443 1442 1441 1440 1439 1438 1436 1434 1433 1431 1430 1429 1427 1426 1424 1422 1421 1419 1417 1415 1413
1474 1476 1477 1475 1474 1465 1455 1454 1456 1454 1451 1450 1449 1448 1448 1447 1446 1444 1444 1443 1442 1441 1441 1440 1439 1438 1437 1437 1435 1433 1431 1430 1428 1427 1425 1424 1422 1421 1419 1417 1415 1413 1411 1409
1463 1463 1462 1463 1460 1453 1451 1451 1450 1450 1449 1448 1447 1446 1446 1444 1443 1442 1441 1441 1440 1439 1438 1438 1437 1436 1435 1434 1432 1431 1429 1427 1426 1424 1422 1421 1419 1418 1416 1414 1412 1410 1408 1405
1457 1456 1457 1456 1451 1449 1448 1448 1448 1448 1447 1446 1445 1444 1443 1442 1441 1440 1440 1439 1438 1437 1436 1435 1434 1433 1432 1431 1430 1428 1427 1425 1423 1421 1419 1417 1416 1414 1413 1411 1409 1407 1405 1402
1451 1453 1453 1452 1447 1446 1444 1445 1445 1444 1444 1443 1442 1442 1441 1440 1439 1438 1437 1437 1436 1435 1434 1433 1432 1430 1429 1428 1427 1426 1424 1422 1420 1418 1416 1414 1413 1411 1409 1408 1406 1404 1402 1401
1446 1448 1449 1446 1443 1443 1442 1442 1442 1441 1440 1440 1439 1438 1438 1437 1436 1435 1435 1434 1433 1432 1432 1431 1429 1428 1427 1425 1424 1423 1421 1419 1417 1415 1413 1412 1410 1408 1407 1405 1403 1401 1400 1397